Lexington Weather

Lexington, Massachusetts, USA

18°F
1/26/2022 6:20am 
  • Lexington Conditions: Clear
  • Temperature: 18.0°F / -7.8°CColder 1.2°F than last hour.
  • Dew Point: 8.2°FDecreased 1.5°Fsince last hour.
  • Relative Humidity: 65%Decreased 1.0% since last hour.
  • Wind: Calm, 10-min avg: Calm, gust: None
  • Barometer: 30.17 inRising 0.02  inHg/hr Rising Slowly
  • Visibility: 10 miles
  • Snow Today: 0.8 in
  •   

Regional Weather Roundup
for Boston / Norton, MA

        
000
ASUS41 KBOX 261104
RWRBOX

REGIONAL WEATHER ROUNDUP
NATIONAL WEATHER SERVICE BOSTON/NORTON MA
600 AM EST WED JAN 26 2022

NOTE:  "FAIR" INDICATES FEW OR NO CLOUDS BELOW 12,000 FEET WITH NO 
SIGNIFICANT WEATHER AND/OR OBSTRUCTIONS TO VISIBILITY.

MAZALL-261200-
EASTERN MASSACHUSETTS
  
CITY           SKY/WX    TMP DP  RH WIND       PRES   REMARKS
BOSTON         PTCLDY    22   4  46 NW10      30.21R WCI  11          
BEVERLY        CLEAR     16   5  62 W3        30.19R                  
LAWRENCE       CLEAR     18   5  57 NW6       30.22R WCI  10          
BEDFORD        CLEAR     15   5  64 W6        30.20R WCI   6          
BLUE HILL      NOT AVBL                                               
NORWOOD        CLEAR     19   5  54 NW5       30.21R WCI  12          
MARSHFIELD     CLEAR     23   3  42 NW8       30.19R WCI  14          
PLYMOUTH       CLEAR     21   7  54 NW8       30.18R WCI  11          
TAUNTON        CLEAR     21   7  54 NW5       30.19R WCI  15          
NEW BEDFORD    CLEAR     21   9  59 NW5       30.19R WCI  15          
$$

MAZALL-261200-
CAPE COD AND THE ISLANDS
  
CITY           SKY/WX    TMP DP  RH WIND       PRES   REMARKS
FALMOUTH       CLEAR     21   9  58 NW12      30.17R WCI   9          
HYANNIS        CLEAR     28  13  53 NW10G22   30.15R WCI  19          
CHATHAM        CLEAR     27  11  51 N8G18     30.16R WCI  19          
PROVINCETOWN   CLEAR     26  12  55 N17       30.18R WCI  13          
NANTUCKET      CLEAR     30  19  63 NW15      30.15R WCI  19          
MARTHAS VNYRD  CLEAR     24  12  60 N14       30.17R WCI  12          
$$
 
MAZALL-261200-
CENTRAL AND WESTERN MASSACHUSETTS
  
CITY           SKY/WX    TMP DP  RH WIND       PRES   REMARKS
WORCESTER      CLEAR     13   3  64 W9        30.14R WCI   1          
FITCHBURG      CLEAR     10   3  73 N3        30.20R                  
ORANGE         CLEAR      3  -2  79 CALM      30.19R                  
SPRINGFIELD    CLEAR     13   3  64 CALM      30.21R                  
WESTFIELD      CLEAR     10   5  80 CALM      30.22R                  
NORTH ADAMS    CLEAR     15  -3  44 W15       30.19R WCI   0          
PITTSFIELD     CLEAR     11  -1  58 NW7       30.15R WCI   0          
$$
 
RIZALL-261200-
RHODE ISLAND
  
CITY           SKY/WX    TMP DP  RH WIND       PRES   REMARKS
PROVIDENCE     CLEAR     21   6  52 VRB7      30.21R WCI  12          
NEWPORT        CLEAR     21   8  57 MISG      30.19R                  
BLOCK ISLAND   CLEAR     22  10  60 N10       30.21R WCI  11          
SMITHFIELD     CLEAR     18   6  59 NW7       30.19R WCI   9          
WESTERLY       CLEAR     20   9  62 VRB7      30.22R WCI  11          
$$
 
CTZALL-261200-
CONNECTICUT
  
CITY           SKY/WX    TMP DP  RH WIND       PRES   REMARKS
BRADLEY INTL   CLEAR     16   4  59 NW5       30.24R WCI   9          
HARTFORD       CLEAR     20   5  52 NW7       30.27R WCI  11          
BRIDGEPORT     CLEAR     19   7  59 N7        30.27R WCI  10          
DANBURY        CLEAR     11   5  77 CALM      30.25R                  
GROTON         CLEAR     20   6  55 NW9       30.23R WCI   9          
NEW HAVEN      CLEAR     22   9  57 NW9       30.25R WCI  12          
CHESTER        FAIR      18  10  73 NW8       30.22R WCI   7          
MERIDEN        CLEAR     18   8  65 NW6       30.26R WCI  10          
WILLIMANTIC    CLEAR     15   7  70 NW3       30.23R                  
OXFORD         CLEAR     13   7  77 N9        30.22R WCI   1          
$$

MEZ002-015-021-024-NHZ003-005-008-011-012-014-VTZ005-008-261200-
NORTHERN NEW ENGLAND
  
CITY           SKY/WX    TMP DP  RH WIND       PRES   REMARKS
PORTLAND ME    CLEAR      9   3  77 NW8       30.18R WCI  -3          
BANGOR ME      CLEAR      8   1  73 NW6       30.16R WCI  -2          
CONCORD NH     CLEAR     10   2  69 CALM      30.19R                  
MANCHESTER NH  PTCLDY    16   6  65 CALM      30.18R                  
NASHUA NH      CLEAR     10   6  84 W5        30.21R WCI   2          
PORTSMOUTH NH  CLEAR     15   1  51 W6        30.20R WCI   7          
JAFFREY NH     CLEAR     -1  -5  82 S3        30.12R                  
KEENE NH       PTCLDY     5   2  87 CALM      30.19R                  
BURLINGTON VT  PTCLDY     2  -7  66 NE10      30.28R WCI -14          
MT. WASHINGTON NOT AVBL                                               
$$

NYZ052-076-261200-
EASTERN NEW YORK
  
CITY           SKY/WX    TMP DP  RH WIND       PRES   REMARKS
ALBANY         CLEAR     13   1  59 W8        30.27R WCI   2          
NEW YORK CITY  PTCLDY    24   7  48 NW13      30.27R WCI  12          
$$
 
ANZALL-261200-
MARINE OBSERVATIONS
  
STATION/POSITION TIME  TEMP    WIND        PRES    VSBY  WAVE
                       AIR SEA DIR/SP/G                  HT/PER
                 (UTC) (F)     (DEG/KT/KT) (MB)    (MI)  (FT/S)
BOSTON BUOY      1040      44  300/ 16/ 21 1022.5R
BUZZARDS BAY     1000                      1022.7R
NANTUCKET SOUND  1050   28     330/ 17/ 21 1021.3R
MASS BAY-STELLWA 1004      44                N/A
ISLE OF SHOALS   1000   22     310/ 19/ 21 1021.0R
S OF BLOCK IS    1026      47                N/A           4/ 5
$$

......................KEY.........................
  SKY/WX - SKY CONDITION/PRESENT WEATHER
  TMP    - TEMPERATURE IN FAHRENHEIT
  DWPT   - DEWPOINT IN FAHRENHEIT
  RH     - RELATIVE HUMIDITY IN PERCENT
  WIND   - DIRECTION AND SPEED IN MPH
  PRES   - MEAN SEA LEVEL PRESSURE IN INCHES OF HG
  WCI    - WIND CHILL INDEX
  VSB    - VISIBILITY IN MILES
  HX     - HEAT INDEX
  TC     - TEMPERATURE IN CELSIUS
  VRB    - VARIABLE WIND DIRECTION
  N/A    - NOT AVAILABLE
  
      

Other recent Regional Weather Roundups

Wed Jan 26, 5:04am

Wed Jan 26, 4:04am

Wed Jan 26, 3:04am

Wed Jan 26, 2:04am

Wed Jan 26, 1:04am

Wed Jan 26, 12:04am

Tue Jan 25, 11:04pm

Tue Jan 25, 10:04pm

Tue Jan 25, 9:04pm

Tue Jan 25, 8:04pm

Tue Jan 25, 7:04pm

Tue Jan 25, 6:04pm

Tue Jan 25, 5:04pm

Tue Jan 25, 4:04pm

Tue Jan 25, 3:04pm

Tue Jan 25, 2:04pm

Tue Jan 25, 1:04pm

Tue Jan 25, 12:05pm

Tue Jan 25, 11:04am

Tue Jan 25, 10:04am

Tue Jan 25, 9:05am

Tue Jan 25, 8:04am

Tue Jan 25, 7:04am

Tue Jan 25, 6:04am

Tue Jan 25, 5:04am

Tue Jan 25, 4:04am

Tue Jan 25, 3:04am

Tue Jan 25, 2:04am

Tue Jan 25, 1:04am

Tue Jan 25, 12:04am

Mon Jan 24, 11:04pm

Mon Jan 24, 10:04pm

Mon Jan 24, 9:04pm

Mon Jan 24, 8:04pm

Mon Jan 24, 7:04pm

Mon Jan 24, 6:04pm

Mon Jan 24, 5:04pm

Mon Jan 24, 3:04pm

Mon Jan 24, 2:04pm

Mon Jan 24, 1:04pm

Mon Jan 24, 12:04pm

Mon Jan 24, 11:04am

Mon Jan 24, 10:04am

Mon Jan 24, 9:04am

Mon Jan 24, 8:04am

Mon Jan 24, 7:04am

Mon Jan 24, 6:04am

Mon Jan 24, 5:04am

Mon Jan 24, 4:04am

Mon Jan 24, 3:04am

Mon Jan 24, 2:04am

Mon Jan 24, 1:04am

Mon Jan 24, 12:04am

Sun Jan 23, 11:04pm

Sun Jan 23, 10:04pm

Sun Jan 23, 9:04pm

Sun Jan 23, 8:04pm

Sun Jan 23, 7:04pm

Sun Jan 23, 6:05pm

Sun Jan 23, 5:04pm

Sun Jan 23, 4:04pm

Sun Jan 23, 3:04pm

Sun Jan 23, 2:04pm

Sun Jan 23, 1:04pm

Sun Jan 23, 12:04pm

Sun Jan 23, 11:04am

Sun Jan 23, 10:04am

Sun Jan 23, 9:04am

Sun Jan 23, 8:04am

Sun Jan 23, 7:04am

Sun Jan 23, 6:04am

Sun Jan 23, 5:04am

Sun Jan 23, 4:04am

Sun Jan 23, 3:04am

Sun Jan 23, 2:04am

Sun Jan 23, 1:04am

Sun Jan 23, 12:04am

Sat Jan 22, 11:04pm

Sat Jan 22, 10:04pm

Sat Jan 22, 9:04pm

Sat Jan 22, 8:05pm

Sat Jan 22, 7:04pm

Sat Jan 22, 6:04pm

Sat Jan 22, 5:04pm

Sat Jan 22, 4:04pm

Sat Jan 22, 3:04pm

Sat Jan 22, 2:04pm

Sat Jan 22, 1:04pm

Sat Jan 22, 12:04pm

Sat Jan 22, 11:04am

Sat Jan 22, 10:04am

Sat Jan 22, 9:04am

Sat Jan 22, 8:04am

Sat Jan 22, 7:04am

Sat Jan 22, 6:04am

Sat Jan 22, 5:04am

Sat Jan 22, 4:04am

Sat Jan 22, 3:04am

Sat Jan 22, 2:04am

Sat Jan 22, 1:04am

Sat Jan 22, 12:04am

Fri Jan 21, 11:04pm

Fri Jan 21, 10:04pm

Fri Jan 21, 9:04pm

Fri Jan 21, 8:04pm

Fri Jan 21, 7:04pm

Fri Jan 21, 6:04pm

Fri Jan 21, 5:04pm

Fri Jan 21, 4:04pm

Fri Jan 21, 3:04pm

Fri Jan 21, 2:04pm

Fri Jan 21, 1:04pm

Fri Jan 21, 12:04pm

Fri Jan 21, 11:04am

Fri Jan 21, 10:04am

Fri Jan 21, 9:04am

Fri Jan 21, 8:04am

Fri Jan 21, 7:04am

Fri Jan 21, 6:04am

Fri Jan 21, 5:04am

Fri Jan 21, 4:04am

Fri Jan 21, 3:04am

Fri Jan 21, 2:04am

Fri Jan 21, 1:04am

Fri Jan 21, 12:04am

Thu Jan 20, 11:04pm

Thu Jan 20, 10:04pm

Thu Jan 20, 9:04pm

Thu Jan 20, 8:04pm

Thu Jan 20, 7:04pm

Thu Jan 20, 6:05pm

Thu Jan 20, 5:04pm

Thu Jan 20, 4:04pm

Thu Jan 20, 3:04pm

Thu Jan 20, 2:04pm

Thu Jan 20, 1:04pm

Thu Jan 20, 12:04pm

Thu Jan 20, 11:04am

Thu Jan 20, 10:05am

Thu Jan 20, 9:04am

Thu Jan 20, 8:04am

Thu Jan 20, 7:04am

Thu Jan 20, 6:04am

Thu Jan 20, 5:04am

Thu Jan 20, 4:04am

Thu Jan 20, 3:04am

Thu Jan 20, 2:04am

Thu Jan 20, 1:04am

Thu Jan 20, 12:04am

Wed Jan 19, 11:04pm

Wed Jan 19, 10:04pm

Wed Jan 19, 9:04pm

Wed Jan 19, 8:04pm

Wed Jan 19, 7:04pm

Wed Jan 19, 6:04pm

Wed Jan 19, 5:04pm

Wed Jan 19, 4:04pm

Wed Jan 19, 3:04pm

Wed Jan 19, 2:04pm

Wed Jan 19, 1:04pm

Wed Jan 19, 12:05pm

Wed Jan 19, 11:04am

Wed Jan 19, 10:04am

Wed Jan 19, 9:04am

Wed Jan 19, 8:04am

Wed Jan 19, 7:04am

Meta data:

ID: 2bde9116-947f-4420-a60f-779df6843758
Link: https://api.weather.gov/products/2bde9116-947f-4420-a60f-779df6843758